Location: Unspecified
(0.0000°N, 0.0000°E)
Time: 09:29:11
(UTC+02:00)

Cosmos 2228 - Visible Passes

Search period start: 23 August 2014 00:00
Search period end: 02 September 2014 00:00
Orbit: 597 x 624 km, 82.5° (Epoch: 22 August)

Date Brightness Start Highest point End Pass type
(mag) Time Alt. Az. Time Alt. Az. Time Alt. Az.
23 Aug 2.9 21:07:48 10° S 21:12:03 60° E 21:16:18 10° NNE visible
24 Aug 3.5 21:22:26 10° SSW 21:26:41 61° W 21:30:57 10° N visible
25 Aug 5.1 21:37:38 10° SW 21:41:19 28° W 21:45:02 10° NNW visible
26 Aug 6.2 21:53:48 10° WSW 21:55:58 14° W 21:58:08 10° NW visible
27 Aug 3.3 20:29:05 10° SSE 20:33:12 45° E 20:37:20 10° NNE visible
28 Aug 3.1 20:43:31 10° S 20:47:50 82° W 20:52:11 10° N visible
29 Aug 4.7 20:58:29 10° SSW 21:02:28 37° W 21:06:29 10° NNW visible
30 Aug 6.9 07:31:06 10° ENE 07:32:26 11° E 07:33:47 10° ESE visible
30 Aug 6.0 21:14:10 10° SW 21:17:06 18° W 21:20:04 10° NW visible
